Airfield :
LOGIN :

Register | Disclaimer

   EN    FR    IT 

 










Legend :    VFR   Marginal VFR   IFR   Intensive IFR   Very Intensive IFR
Visi :
Ceiling :
>= 8 km
>= 3000ft
5 to 8 km
1000 to 3000 ft
1500m to 5 km
500 to 1000 ft
800 to 1500m
200 to 500 ft
< 800m
< 200 ft
Symbols :   Thunderstorms  Fog  Heavy snow  Heavy precipitations  Wind > 20 kt
SIGMETs :     Misc.  Thunderstorms  Icing  Turbulence  Mountain Waves  Volcanic Ashes







- Airport Elevation : 1455 ft


ETIH - Hohenfels Army Air Field

CURRENT METAR :
  • 170556Z AUTO 00000KT 9999 CLR 16/16 A3020 RMK AO2 SLP219 T01620162 10162 20100 50000 $

EXPIRED METARs :
  • 170456Z AUTO 00000KT 9999 CLR 13/13 A3020 RMK AO2 SLP221 T01330133 $
  • 170356Z AUTO 00000KT 9999 CLR 10/10 A3020 RMK AO2 SLP223 T01040104 $

Expired Forecast.
No reported NOTAMs for that airfield.



MET'MAP, your aeronautical weather chart ! - Copyright ORBIFLY December 2007 - Disclaimer

ORBIFLY MET'MAP TEAM :

Programming & Development : Alexandra Zaïnal
Concept & Development : Baudouin d'Aumeries
Co-Development & Prog : Marc-Olivier Méhu
Technical & hardware support : Manuel Goepfert

Contact : metmap@orbifly.com




SOURCES & CREDITS :

   NOAA